Flag for U.S.A. Weather past 2 weeks in Cleveland, Tennessee, U.S.A.

Now
70 °F

Passing clouds.


Feels Like: 69 °F
Forecast: 65 / 90 °F
Wind: No wind

Location: Lovell Field

Current Time: Aug 3, 2015 at 6:44:20 AM

Latest Report: Aug 3, 2015 at 5:53 AM


Visibility: 10 mi

Pressure: 29.89 "Hg

Humidity: 84%

Dew point: 65 °F

Location of ClevelandLocation

Historic Weather in Cleveland — Graph

°F

Cleveland temperature yesterday

Maximum temperature yesterday: 92 °F (at 4:53 PM)
Minimum temperature yesterday: 68 °F (at 4:53 AM)
Average temperature yesterday: 80 °F

Past Weeks' High & Low Weather Summary

 TemperatureHumidityPressure
High95 °F (Jul 20, 4:53 PM)94% (Jul 20, 3:53 AM)30.03 "Hg (Jul 20, 3:53 AM)
Low65 °F (Aug 1, 6:53 AM)30% (Aug 2, 5:53 PM)29.80 "Hg (Jul 21, 4:53 AM)
Average81 °F70%29.94 "Hg
* Reported Jul 19 4:53 AM — Aug 3 4:53 AM, Cleveland, Weather by CustomWeather, © 2015

Note: Actual official high and low records may vary slightly from our data, if they occured in-between our weather recording intervals... More about our weather records

Advertising

Cleveland weather history for previous 24 hours

 ConditionsComfort  
Time TempWeatherWind HumidityBarometerVisibility
4:53 AM
Mon, Aug 3
70 °FClear.3 mph84%29.89 "Hg10 mi
3:53 AM69 °FClear.No wind87%29.88 "Hg10 mi
2:53 AM72 °FClear.No wind78%29.89 "Hg10 mi
1:53 AM73 °FPassing clouds.No wind76%29.90 "Hg10 mi
12:53 AM75 °FClear.No wind69%29.90 "Hg10 mi
11:53 PM
Sun, Aug 2
74 °FPassing clouds.No wind74%29.90 "Hg10 mi
10:53 PM76 °FPassing clouds.No wind69%29.89 "Hg10 mi
9:53 PM77 °FPassing clouds.5 mph64%29.89 "Hg10 mi
8:53 PM85 °FBroken clouds.6 mph42%29.87 "Hg10 mi
7:53 PM87 °FBroken clouds.9 mph36%29.88 "Hg10 mi
6:53 PM90 °FBroken clouds.9 mph35%29.88 "Hg10 mi
5:53 PM92 °FBroken clouds.5 mph30%29.89 "Hg10 mi
4:53 PM92 °FBroken clouds.8 mph32%29.90 "Hg10 mi
3:53 PM90 °FScattered clouds.5 mph34%29.91 "Hg10 mi
2:53 PM91 °FScattered clouds.7 mph37%29.93 "Hg10 mi
1:53 PM89 °FScattered clouds.8 mph42%29.94 "Hg10 mi
12:53 PM87 °FScattered clouds.5 mph43%29.95 "Hg10 mi
11:53 AM85 °FScattered clouds.5 mph51%29.96 "Hg10 mi
10:53 AM81 °FScattered clouds.7 mph56%29.98 "Hg10 mi
9:53 AM79 °FScattered clouds.8 mph60%29.97 "Hg10 mi
8:53 AM76 °FScattered clouds.7 mph64%29.97 "Hg10 mi
7:53 AM71 °FScattered clouds.No wind81%29.96 "Hg10 mi
6:53 AM68 °FPartly cloudy.No wind87%29.95 "Hg10 mi
Weather by CustomWeather, © 2015

See weather overviewHow to use our weather pages